Voltar ao catálogo

STARLINK-34462

AtivoComunicaçõesVLEO
NORAD 64493·PAYLOAD·🇺🇸 United States

Lançado Jun 23, 2025 de Cape Canaveral Space Force Station

Loading…

Próximas Passagens (próximas 24 horas)

TLE

AtualizadoSource: CelesTrak SupGP

Época: Sep 14, 2026, 22:51 UTC

1 64493C 25133X   26257.95256944  .00037707  00000+0  11141-2 0  2576
2 64493  53.1588 311.9036 0001279  85.6476  32.2059 15.34370868    13

Acompanhe STARLINK-34462 em tempo real com AllMySat

Download on the App Store